CZ-4B R/B (46470 NORAD) Tracking and Keplerian Element Data

This shows tracking and keplerian element data for the satellite.

Feedback or suggestion? Click here.




ElementValue
Catalog46470
NameCZ-4B R/B
Epoch Orbit422
Epoch Day294.7579808
Epoch Year2020
RAAN312.1901
Inclination66.0567
Eccentricity0.0203151
Argument of Perigee338.4595
Mean Anonmoly20.8036
Mean Motion14.28562667
Decay Rate-5.6E-07
L11 46470U 20066B 20294.75798080 -.00000056 00000-0 14716-4 0 9991
L22 46470 66.0567 312.1901 0203151 338.4595 20.8036 14.28562667 4223

Live tracking and technical data element details for CZ-4B R/B (NORAD 46470). CZ-4B R/B can be tracked NOW for your location showing map with azimuth and elevation plus other details from your city location.

Track the satellite on the map from your city or location and see movement details for azimuth, elevation, latitude, longitude, range, height, and movement on the map or in text.







IsCatalogInMostPopularTable: catalog: 46470, numindb: 8
Update: records affected: 1



GetName: 46470 CZ-4B R/B

Hit Count: updated at: Sat, 31 Oct 2020 11:25:36 GMT